Location: Betz
(49.1556°N, 2.9558°E)
Time: 12:21:49
(UTC+00:00)

SPOT 3 Rocket - Pass Details

Date: 18 September 2019
Orbit: 779 x 794 km, 98.8° (Epoch: 15 October)

Event Time Altitude Azimuth Distance (km) Brightness Sun altitude
Exits shadow 18:31:11 - 136° (SE) 3,107 6.2 -6.6°
Reaches altitude 10° 18:33:15 10° 129° (SE) 2,331 5.5 -6.9°
Maximum altitude 18:37:54 36° 64° (ENE) 1,223 4.2 -7.7°
Drops below altitude 10° 18:42:35 10° 359° (N) 2,346 6.2 -8.4°
Sets 18:45:04 0° 352° (N) 3,280 7.1 -8.8°
